Tracking 28799 objects as of 18-Apr-2024
HD Live streaming from Space Station
objects crossing your sky now

SCOUT G-1 DEB

Track SCOUT G-1 DEB now!
10-day predictions


NORAD ID: 22706
Int'l Code: 1993-041C
Perigee: 732.7 km
Apogee: 772.2 km
Inclination: 89.3 °
Period: 99.7 minutes
Semi major axis: 7123 km
RCS: 0.046 m2 (small)
Launch date: June 25, 1993
Source: United States (US)
Launch site: AIR FORCE WESTERN TEST RANGE (AFWTR)

Note: This is SATELLITE DEBRIS
Your satellite tracking list
Your tracking list is empty




NASA's NSSDC Master Catalog

Two Line Element Set (TLE):
1 22706U 93041C   24108.07489655  .00002636  00000-0  76392-3 0  9990
2 22706  89.2816 123.3705 0027765 190.1178 230.3133 14.44003563615803
Source of the keplerian elements: AFSPC